STARLINK-37593, 69355

Orbit data source: Space-Track

STARLINK-37593, 69355 is a payload satellite owned by SpaceX/Seattle (US) in LEO that was launched on Thu, 04 Jun 2026 UTC via an FALCON 9 launch vehicle from the Air Force Eastern Test Range (AFETR). Payload-class satellites include a variety of spacecraft equipped with specific instruments for various scientific and technological missions. These include communications satellites like Starlink; space stations such as the ISS; scientific satellites like the Hubble; Earth observation satellites from companies like Planet Labs, Umbra, and HawkEye 360; GPS; miniature CubeSats for education and research; and military/defense satellites.

Loading next visibility...
Identifier
69355, 2026-123C
Orbit
LEO
Country
Flag of USUS
Related business
Manufacturer
SpaceX/Seattle
Mission
Operational spacecraft
Bus & Motor
STARLINK V2MO, Unknown motor
Mass
575 kg wet, ~530 kg dry
Launch date (UTC)
2026-06-04 (2 months ago)
Launch vehicle
FALCON 9
Launch site
Air Force Eastern Test Range (AFETR)
Object type
Payload
Rocket body
Debris
Shape & HBR
BOX + PAN, 17.7 m
Radar Cross Section
Large (>1 m²)

Expand to show TLE details & history
Last TLE update: 2 days ago

TLE from 2 days ago
0 STARLINK-37593
1 69355U 26123C   26205.79296020  .00239862  00000-0  14849-2 0  9990
2 69355  53.1579  54.1377 0001177 226.3970 133.6953 15.75849171  7973
Epoch: 2026-07-24T19:01Z
TLE epoch observation values (Epoch: 2026-07-24T19:01:51.761Z)
Latitude
-0.00001°
Longitude
-173.84248°
Altitude
343.68 km
Speed
7.704 km/s
True Right ascension
03h 36m 33s
True Declination
0° 00' 00"
Sunlit
Object was in daylight at epoch
Visualization orbit readout
Latitude
Unknown
Longitude
Unknown
Altitude
Unknown
Speed
Unknown
Apparent Right ascension
Unknown
Apparent Declination
Unknown
Sunlit
N/A
Visualization observer readout
Local Sidereal Time
11:35:14
Azimuth
Unknown
Elevation
Unknown
Doppler factor
Unknown
Orbital elements
Apogee altitude
343.269 km
Perigee altitude
341.687 km
Semi-major axis
6,720.615 km
Eccentricity
0.00012
Inclination
53.1579°
RAAN
54.1377°
Arg. of periapsis
226.397°
True anomaly
133.70505°
Mean anomaly
133.6953°
Eccentric anomaly
133.70018°
Mean motion
3.9394 °/min
Orbital period
91.38 mins
BSTAR
0.0014849
Loading maneuver chart data...
Computing Atmospheric mass density...
Loading historical data...
Loading historical data...
Loading historical data...
Loading historical data...
Loading historical data...
Loading historical data...
Loading historical data...

Documentation

Showing up to 5 results
|